GW0889 Weather Reports


Display with metric or nautical units.
time (UTC)temp
F
wind
direction
speed
MPH
gust
MPH
rain 1hr
in
rain 24hr
in
rain mn
in
humidity
%
barometer
mb
20260502221541 56 344 6.0 11.0 0.00 0.01 0.01 44 1015.3
20260502221038 56 290 6.0 11.0 0.00 0.01 0.01 43 1015.2
20260502220536 56 337 5.0 11.0 0.00 0.01 0.01 43 1015.2
20260502220036 56 301 5.0 12.0 0.00 0.01 0.01 43 1015.1
20260502215537 56 323 7.0 13.0 0.00 0.01 0.01 43 1015.1
20260502215037 56 355 7.0 13.0 0.00 0.01 0.01 44 1015.1
20260502214533 56 311 6.0 13.0 0.00 0.01 0.01 43 1015.0
20260502214032 56 331 6.0 14.0 0.00 0.01 0.01 43 1015.0
20260502213533 56 294 8.0 18.0 0.00 0.01 0.01 42 1015.0
20260502213034 57 293 8.0 18.0 0.00 0.01 0.01 40 1015.0
20260502212533 57 292 7.0 13.0 0.00 0.01 0.01 40 1014.9
20260502212032 58 288 7.0 13.0 0.00 0.01 0.01 41 1014.9
20260502211533 58 355 9.0 14.0 0.00 0.01 0.01 40 1014.8
20260502211032 57 337 7.0 14.0 0.00 0.01 0.01 41 1014.9
20260502210532 57 342 9.0 18.0 0.00 0.01 0.01 42 1014.9
20260502210031 57 319 9.0 18.0 0.00 0.01 0.01 42 1014.9
20260502205530 57 260 7.0 14.0 0.00 0.01 0.01 42 1014.9
20260502205030 57 298 9.0 15.0 0.00 0.01 0.01 41 1014.9
20260502204529 57 348 5.0 15.0 0.00 0.01 0.01 41 1015.0
20260502204030 57 337 5.0 16.0 0.00 0.01 0.01 41 1014.9
20260502203528 57 310 10.0 16.0 0.00 0.01 0.01 41 1015.0
20260502203028 57 321 5.0 13.0 0.00 0.01 0.01 42 1015.0
20260502202527 57 319 7.0 13.0 0.00 0.01 0.01 42 1015.0
20260502202027 57 301 7.0 12.0 0.00 0.01 0.01 41 1015.1
20260502201526 57 283 8.0 12.0 0.00 0.01 0.01 41 1015.2
20260502201026 57 317 6.0 10.0 0.00 0.01 0.01 43 1015.2
20260502200528 57 290 5.0 15.0 0.00 0.01 0.01 43 1015.1
20260502200025 57 291 6.0 19.0 0.00 0.01 0.01 42 1015.2
20260502195524 57 333 6.0 19.0 0.00 0.01 0.01 41 1015.2
20260502195023 58 285 10.0 19.0 0.00 0.01 0.01 41 1015.3
20260502194520 57 310 7.0 12.0 0.00 0.01 0.01 44 1015.3
20260502194020 57 331 8.0 15.0 0.00 0.01 0.01 44 1015.3
20260502193520 57 299 7.0 13.0 0.00 0.01 0.01 42 1015.4
20260502193019 57 275 7.0 13.0 0.00 0.01 0.01 42 1015.4
20260502192520 57 283 7.0 13.0 0.00 0.01 0.01 42 1015.4
20260502192019 58 305 7.0 19.0 0.00 0.01 0.01 41 1015.4
20260502191519 58 288 9.0 19.0 0.00 0.01 0.01 40 1015.5
20260502191019 59 329 10.0 18.0 0.00 0.01 0.01 38 1015.5
20260502190518 60 284 5.0 13.0 0.00 0.01 0.01 38 1015.4
20260502190018 60 269 7.0 13.0 0.00 0.01 0.01 39 1015.5
20260502185516 60 260 5.0 13.0 0.00 0.01 0.01 39 1015.6
20260502185017 60 339 9.0 13.0 0.00 0.01 0.01 39 1015.6
20260502184525 60 312 5.0 11.0 0.00 0.01 0.01 42 1015.6
20260502184013 58 234 1.0 12.0 0.00 0.01 0.01 43 1015.7
20260502183512 58 323 6.0 12.0 0.00 0.01 0.01 43 1015.7
20260502183025 58 308 2.0 9.0 0.00 0.01 0.01 43 1015.8
20260502182512 59 214 4.0 9.0 0.00 0.01 0.01 41 1015.7
20260502182010 58 238 5.0 10.0 0.00 0.01 0.01 43 1015.9
20260502181518 57 273 6.0 12.0 0.00 0.01 0.01 45 1016.0
20260502181514 57 261 6.0 12.0 0.00 0.01 0.01 45 1016.0
20260502181009 55 283 6.0 15.0 0.00 0.01 0.01 47 1016.2
20260502180509 55 299 6.0 15.0 0.01 0.01 0.01 46 1016.2
20260502170504 58 346 13.0 20.0 0.00 0.00 0.00 42 1016.3
20260502164033 57 302 8.0 20.0 0.00 0.00 0.00 43 1016.5
20260502163532 57 348 9.0 21.0 0.00 0.00 0.00 42 1016.4
20260502163032 58 314 10.0 21.0 0.00 0.00 0.00 41 1016.5
20260502162530 58 285 6.0 13.0 0.00 0.00 0.00 44 1016.5
20260502162034 57 306 7.0 16.0 0.00 0.00 0.00 45 1016.6
20260502161529 56 246 7.0 16.0 0.00 0.00 0.00 44 1016.6
20260502161025 57 282 7.0 12.0 0.00 0.00 0.00 42 1016.7
20260502160527 58 355 7.0 13.0 0.00 0.00 0.00 42 1016.6
20260502152018 57 36 6.0 9.0 0.00 0.01 0.00 50 1016.9
20260502151518 57 307 3.0 8.0 0.00 0.01 0.00 51 1017.0
20260502151015 55 133 1.0 7.0 0.00 0.01 0.00 52 1016.8
20260502150514 55 315 3.0 7.0 0.00 0.01 0.00 53 1016.9
20260502130540 45 295 0.0 2.0 0.00 0.01 0.00 94 1017.2
20260502123529 42 260 0.0 0.0 0.00 0.01 0.00 96 1017.1
20260502123033 42 260 0.0 0.0 0.00 0.01 0.00 95 1017.0
20260502122527 42 261 0.0 0.0 0.00 0.01 0.00 96 1016.9
20260502122025 42 262 0.0 0.0 0.00 0.01 0.00 95 1016.9
20260502121525 41 265 0.0 0.0 0.00 0.01 0.00 96 1017.0
20260502121024 41 266 0.0 0.0 0.00 0.01 0.00 96 1017.1
20260502120520 41 279 0.0 0.0 0.00 0.01 0.00 96 1017.1
20260502115518 41 313 0.0 0.0 0.00 0.01 0.00 96 1017.0
20260502115017 40 313 0.0 0.0 0.00 0.01 0.00 95 1016.9
20260502114516 40 315 0.0 0.0 0.00 0.01 0.00 95 1016.9
20260502114015 40 315 0.0 4.0 0.00 0.01 0.00 95 1016.9
20260502113513 40 317 0.0 0.0 0.00 0.01 0.00 95 1016.8
20260502113012 40 317 0.0 1.0 0.00 0.01 0.00 95 1016.9
20260502112512 39 317 0.0 2.0 0.00 0.01 0.00 95 1016.9
20260502112011 39 317 1.0 2.0 0.00 0.01 0.00 95 1016.7
20260502111517 39 317 0.0 2.0 0.00 0.01 0.00 95 1016.7
20260502111011 39 317 0.0 2.0 0.00 0.01 0.00 95 1016.7
20260502110508 39 317 0.0 1.0 0.00 0.01 0.00 95 1016.6
20260502110012 39 317 0.0 2.0 0.00 0.01 0.00 94 1016.6
20260502105510 39 317 0.0 4.0 0.00 0.01 0.00 94 1016.5
20260502105010 39 317 1.0 3.0 0.00 0.01 0.00 94 1016.5
20260502104506 39 318 1.0 4.0 0.00 0.01 0.00 94 1016.5
20260502104004 39 318 1.0 5.0 0.00 0.01 0.00 94 1016.5
20260502103503 39 320 2.0 5.0 0.00 0.01 0.00 94 1016.6
20260502103002 39 55 0.0 1.0 0.00 0.01 0.00 94 1016.5
20260502102503 39 56 0.0 1.0 0.00 0.01 0.00 94 1016.4
20260502102002 39 57 0.0 1.0 0.00 0.01 0.00 93 1016.4
20260502101501 39 57 0.0 0.0 0.00 0.01 0.00 94 1016.5
20260502101101 39 57 0.0 0.0 0.00 0.01 0.00 94 1016.7
20260502100601 39 57 0.0 0.0 0.00 0.01 0.00 94 1016.8
20260502100505 39 57 0.0 0.0 0.00 0.01 0.00 94 1016.7
20260502091522 39 285 0.0 1.0 0.00 0.02 0.00 93 1016.7
20260502091022 39 273 0.0 0.0 0.00 0.02 0.00 93 1016.7
20260502090521 39 275 0.0 0.0 0.00 0.02 0.00 93 1016.7
20260502071510 40 285 0.0 0.0 0.00 0.02 0.02 91 1016.4
20260502071010 40 285 0.0 0.0 0.00 0.02 0.02 91 1016.3
20260502070510 40 285 0.0 0.0 0.00 0.02 0.02 90 1016.4
20260502070010 40 285 0.0 0.0 0.00 0.02 0.02 90 1016.4
20260502065510 41 285 0.0 1.0 0.00 0.02 0.02 90 1016.4
20260502065009 41 285 0.0 1.0 0.00 0.02 0.02 90 1016.6
20260502064509 41 285 0.0 2.0 0.00 0.02 0.02 90 1016.5
20260502064009 41 285 0.0 2.0 0.00 0.02 0.02 90 1016.7
20260502063509 41 285 0.0 4.0 0.00 0.02 0.02 89 1016.7
20260502063110 41 286 0.0 5.0 0.00 0.02 0.02 89 1016.6
20260502062543 41 287 1.0 5.0 0.00 0.02 0.02 89 1016.7
20260502062039 41 308 0.0 0.0 0.00 0.02 0.02 89 1016.7
20260502061541 41 308 0.0 0.0 0.00 0.02 0.02 88 1016.7
20260502061038 42 308 0.0 0.0 0.00 0.02 0.02 88 1016.7
20260502060541 42 308 0.0 0.0 0.00 0.02 0.02 88 1016.8
20260502060038 42 308 0.0 0.0 0.00 0.02 0.02 88 1016.9
20260502055536 42 308 0.0 0.0 0.00 0.02 0.02 88 1016.9
20260502055036 42 308 0.0 0.0 0.00 0.02 0.02 88 1016.9
20260502054536 42 308 0.0 0.0 0.00 0.02 0.02 88 1016.9
20260502054035 42 308 0.0 0.0 0.00 0.02 0.02 88 1016.8
20260502053535 42 308 0.0 0.0 0.00 0.02 0.02 88 1016.9
20260502053036 43 308 0.0 0.0 0.00 0.02 0.02 87 1017.0
20260502052535 43 308 0.0 0.0 0.00 0.02 0.02 87 1017.0
20260502052035 43 308 0.0 0.0 0.00 0.02 0.02 87 1017.0
20260502051543 43 308 0.0 0.0 0.00 0.02 0.02 87 1016.9
20260502051034 43 308 0.0 0.0 0.00 0.02 0.02 87 1017.0
20260502050534 43 308 0.0 0.0 0.00 0.02 0.02 86 1017.0
20260502050038 43 308 0.0 1.0 0.00 0.02 0.02 86 1017.1
20260502045531 44 308 0.0 4.0 0.00 0.02 0.02 86 1017.1
20260502045036 44 308 1.0 4.0 0.00 0.02 0.02 86 1017.0
20260502044531 44 309 2.0 4.0 0.00 0.02 0.02 85 1017.0
20260502044031 44 311 0.0 0.0 0.00 0.02 0.02 84 1017.1
20260502043530 44 311 0.0 0.0 0.00 0.02 0.02 84 1017.1
20260502043030 44 311 0.0 2.0 0.00 0.02 0.02 84 1017.2
20260502042530 44 311 0.0 4.0 0.00 0.02 0.02 83 1017.2
20260502042033 44 309 0.0 2.0 0.00 0.02 0.02 83 1017.2
20260502041542 45 309 0.0 2.0 0.00 0.02 0.02 83 1017.2
20260502041029 45 309 0.0 4.0 0.00 0.02 0.02 82 1017.2
20260502040528 45 309 1.0 3.0 0.00 0.02 0.02 82 1017.2
20260502040028 45 309 2.0 3.0 0.00 0.03 0.02 81 1017.3
20260502035526 46 318 0.0 0.0 0.00 0.03 0.02 80 1017.2
20260502035027 46 318 0.0 2.0 0.00 0.03 0.02 80 1017.1
20260502034526 46 320 0.0 2.0 0.00 0.03 0.02 80 1017.2
20260502034025 46 320 0.0 4.0 0.00 0.03 0.02 79 1017.1
20260502033526 47 320 1.0 5.0 0.00 0.03 0.02 79 1017.0
20260502033027 47 333 2.0 3.0 0.00 0.03 0.02 79 1016.9
20260502032527 47 355 1.0 3.0 0.00 0.03 0.02 78 1016.9
20260502032025 48 355 1.0 3.0 0.00 0.03 0.02 77 1016.9
20260502031525 48 5 2.0 3.0 0.00 0.03 0.02 76 1016.9
20260502031025 49 5 1.0 3.0 0.00 0.03 0.02 75 1016.9
20260502030525 49 10 1.0 3.0 0.00 0.03 0.02 73 1017.0
20260502030025 49 13 1.0 3.0 0.00 0.03 0.02 71 1017.1
20260502025528 50 13 0.0 4.0 0.00 0.03 0.02 69 1017.0
20260502025021 50 13 0.0 4.0 0.00 0.03 0.02 68 1017.1
20260502024522 50 355 1.0 3.0 0.00 0.03 0.02 67 1017.1
20260502024022 50 355 0.0 2.0 0.00 0.03 0.02 67 1017.1
20260502023522 50 355 0.0 4.0 0.00 0.03 0.02 66 1017.2
20260502023022 50 355 0.0 4.0 0.00 0.03 0.02 66 1017.2
20260502022521 50 355 0.0 2.0 0.00 0.03 0.02 66 1017.2
20260502022024 50 355 0.0 4.0 0.00 0.03 0.02 66 1017.1
20260502021521 51 355 0.0 4.0 0.00 0.03 0.02 66 1017.0
20260502021021 51 11 0.0 6.0 0.00 0.03 0.02 66 1016.8
20260502020521 51 355 3.0 6.0 0.00 0.03 0.02 65 1016.7
20260502020017 51 88 1.0 6.0 0.00 0.03 0.02 65 1016.6
20260502015514 51 42 2.0 6.0 0.00 0.03 0.02 65 1016.5
20260502015017 51 54 3.0 7.0 0.00 0.03 0.02 65 1016.4
20260502014523 51 52 3.0 7.0 0.00 0.03 0.02 64 1016.2
20260502014012 51 329 2.0 11.0 0.00 0.03 0.02 64 1016.1
20260502013512 51 360 6.0 11.0 0.00 0.03 0.02 64 1016.1
20260502013011 51 355 6.0 10.0 0.00 0.03 0.02 64 1016.0
20260502012513 52 11 5.0 10.0 0.00 0.03 0.02 64 1015.9
20260502012010 52 13 4.0 10.0 0.00 0.03 0.02 64 1015.8
20260502011510 52 355 5.0 9.0 0.00 0.03 0.02 64 1015.7
20260502011009 52 10 5.0 11.0 0.00 0.03 0.02 64 1015.7
20260502010510 52 355 5.0 12.0 0.00 0.03 0.02 64 1015.5
20260502010008 52 344 7.0 12.0 0.00 0.03 0.02 64 1015.5
20260502005507 53 5 7.0 14.0 0.00 0.03 0.02 64 1015.3
20260502005004 53 27 5.0 10.0 0.00 0.03 0.02 64 1015.1
20260502004504 53 342 6.0 12.0 0.00 0.03 0.02 64 1015.1
20260502004004 53 328 7.0 12.0 0.00 0.03 0.02 63 1015.1
20260502003502 53 337 4.0 13.0 0.00 0.03 0.02 63 1015.0
20260502003002 53 14 6.0 13.0 0.00 0.03 0.02 63 1014.8
20260502002505 53 341 7.0 14.0 0.00 0.03 0.02 63 1014.7
20260502002501 53 22 7.0 14.0 0.00 0.03 0.02 63 1014.7
20260502002001 54 302 8.0 22.0 0.00 0.03 0.02 62 1014.5
20260502001501 54 334 12.0 22.0 0.00 0.03 0.02 62 1014.6
20260502001002 55 331 13.0 18.0 0.00 0.03 0.02 62 1014.5
20260502000500 55 336 10.0 20.0 0.00 0.03 0.02 62 1014.4
20260502000101 55 17 13.0 22.0 0.00 0.03 0.02 62 1014.5
20260501235601 56 346 11.0 22.0 0.00 0.03 0.02 62 1014.3
20260501235058 56 20 7.0 15.0 0.00 0.03 0.02 62 1014.2
20260501234558 56 13 10.0 15.0 0.00 0.03 0.02 62 1013.9
20260501234058 56 355 8.0 15.0 0.00 0.03 0.02 61 1013.7
20260501233558 57 349 9.0 15.0 0.00 0.03 0.02 60 1013.4
20260501233108 57 321 10.0 14.0 0.00 0.03 0.02 59 1013.3
20260501232557 57 315 8.0 13.0 0.00 0.03 0.02 58 1013.2
20260501232057 58 311 4.0 11.0 0.00 0.03 0.02 58 1013.0
20260501231626 58 348 5.0 11.0 0.00 0.03 0.02 58 1013.0
20260501231057 58 323 4.0 10.0 0.00 0.03 0.02 58 1013.0
20260501230557 58 313 6.0 11.0 0.00 0.03 0.02 58 1013.0
20260501230059 58 309 5.0 14.0 0.00 0.03 0.02 57 1013.1
20260501225557 58 326 9.0 21.0 0.00 0.03 0.02 56 1013.2
20260501225055 58 349 8.0 21.0 0.00 0.03 0.02 56 1013.2
20260501224554 59 5 11.0 18.0 0.00 0.03 0.02 54 1013.3
20260501224058 59 308 8.0 14.0 0.00 0.03 0.02 55 1013.1
20260501223558 59 330 6.0 16.0 0.00 0.03 0.02 56 1013.1
20260501223117 58 311 9.0 16.0 0.00 0.03 0.02 57 1013.1
20260501222554 58 268 7.0 12.0 0.00 0.03 0.02 59 1013.0
20260501222054 58 17 5.0 14.0 0.00 0.03 0.02 61 1013.0